FW7281 Weather Reports


Display with metric or nautical units.
time (UTC)temp
F
wind
direction
speed
MPH
gust
MPH
rain 1hr
in
rain 24hr
in
rain mn
in
humidity
%
barometer
mb
20260505025019 58 82 0.0 1.0 0.00 0.00 0.00 64 1014.1
20260505024519 58 82 0.0 1.0 0.00 0.00 0.00 64 1014.2
20260505024019 58 82 0.0 1.0 0.00 0.00 0.00 64 1014.1
20260505023519 58 82 0.0 1.0 0.00 0.00 0.00 63 1014.2
20260505023018 58 82 0.0 1.0 0.00 0.00 0.00 64 1014.2
20260505022518 59 82 0.0 0.0 0.00 0.00 0.00 64 1014.1
20260505022018 59 81 0.0 1.0 0.00 0.00 0.00 63 1014.1
20260505021522 59 81 0.0 1.0 0.00 0.00 0.00 63 1014.1
20260505021021 59 96 0.0 0.0 0.00 0.00 0.00 63 1014.1
20260505020519 59 96 0.0 0.0 0.00 0.00 0.00 64 1014.0
20260505020019 59 97 0.0 0.0 0.00 0.00 0.00 63 1013.9
20260505015517 60 97 0.0 0.0 0.00 0.00 0.00 62 1013.9
20260505015017 60 96 0.0 0.0 0.00 0.00 0.00 63 1013.9
20260505014522 60 98 0.0 0.0 0.00 0.00 0.00 62 1013.7
20260505014017 60 96 0.0 0.0 0.00 0.00 0.00 63 1013.7
20260505013517 60 103 0.0 0.0 0.00 0.00 0.00 62 1013.6
20260505013020 60 103 0.0 0.0 0.00 0.00 0.00 62 1013.5
20260505012517 60 77 0.0 0.0 0.00 0.00 0.00 63 1013.4
20260505012017 60 77 0.0 1.0 0.00 0.00 0.00 62 1013.4
20260505011515 60 77 0.0 1.0 0.00 0.00 0.00 62 1013.4
20260505011016 61 77 0.0 0.0 0.00 0.00 0.00 61 1013.3
20260505010516 61 72 0.0 0.0 0.00 0.00 0.00 60 1013.4
20260505010015 61 72 0.0 0.0 0.00 0.00 0.00 60 1013.4
20260505005517 62 72 0.0 0.0 0.00 0.00 0.00 60 1013.4
20260505005015 62 72 0.0 1.0 0.00 0.00 0.00 59 1013.2
20260505004528 62 98 0.0 0.0 0.00 0.00 0.00 59 1013.3
20260505004015 62 104 0.0 0.0 0.00 0.00 0.00 57 1013.1
20260505003514 63 105 0.0 0.0 0.00 0.00 0.00 57 1013.0
20260505003014 64 105 0.0 0.0 0.00 0.00 0.00 56 1013.0
20260505002514 64 105 0.0 0.0 0.00 0.00 0.00 55 1012.8
20260505002014 65 105 0.0 0.0 0.00 0.00 0.00 53 1012.8
20260505001515 65 105 0.0 0.0 0.00 0.00 0.00 52 1012.8
20260505001014 66 105 0.0 0.0 0.00 0.00 0.00 52 1012.8
20260505000518 66 105 0.0 0.0 0.00 0.00 0.00 51 1012.8
20260505000114 66 105 0.0 0.0 0.00 0.00 0.00 50 1012.8
20260504235513 67 115 0.0 0.0 0.00 0.00 0.00 51 1012.7
20260504235013 67 115 0.0 0.0 0.00 0.00 0.00 48 1012.6
20260504234515 68 115 0.0 0.0 0.00 0.00 0.00 48 1012.6
20260504234013 68 115 0.0 0.0 0.00 0.00 0.00 50 1012.6
20260504233513 68 2 0.0 1.0 0.00 0.00 0.00 46 1012.5
20260504233017 68 107 0.0 1.0 0.00 0.00 0.00 45 1012.5
20260504232512 69 165 0.0 0.0 0.00 0.00 0.00 44 1012.5
20260504232014 69 165 0.0 0.0 0.00 0.00 0.00 46 1012.4
20260504231512 69 165 0.0 0.0 0.00 0.00 0.00 44 1012.4
20260504231012 69 165 0.0 0.0 0.00 0.00 0.00 43 1012.3
20260504230515 70 165 0.0 1.0 0.00 0.00 0.00 40 1012.3
20260504230011 70 129 0.0 1.0 0.00 0.00 0.00 40 1012.3
20260504225511 70 138 0.0 1.0 0.00 0.00 0.00 40 1012.3
20260504225010 70 136 0.0 2.0 0.00 0.00 0.00 42 1012.3
20260504224511 70 136 0.0 2.0 0.00 0.00 0.00 40 1012.4
20260504224011 70 77 0.0 1.0 0.00 0.00 0.00 40 1012.4
20260504223510 70 70 0.0 0.0 0.00 0.00 0.00 42 1012.4
20260504223010 70 91 0.0 1.0 0.00 0.00 0.00 40 1012.4
20260504222509 71 91 0.0 1.0 0.00 0.00 0.00 41 1012.5
20260504222009 71 115 0.0 1.0 0.00 0.00 0.00 37 1012.5
20260504221509 71 157 0.0 1.0 0.00 0.00 0.00 37 1012.5
20260504221010 71 338 0.0 1.0 0.00 0.00 0.00 38 1012.5
20260504220510 71 101 0.0 1.0 0.00 0.00 0.00 37 1012.5
20260504220009 72 86 0.0 1.0 0.00 0.00 0.00 38 1012.6
20260504215509 72 303 0.0 1.0 0.00 0.00 0.00 36 1012.5
20260504215013 72 312 0.0 1.0 0.00 0.00 0.00 36 1012.5
20260504214510 72 319 0.0 1.0 0.00 0.00 0.00 38 1012.6
20260504214009 72 340 0.0 1.0 0.00 0.00 0.00 39 1012.5
20260504213511 72 31 0.0 1.0 0.00 0.00 0.00 37 1012.5
20260504213021 73 50 0.0 0.0 0.00 0.00 0.00 39 1012.5
20260504212508 73 324 0.0 0.0 0.00 0.00 0.00 36 1012.5
20260504212009 73 317 0.0 2.0 0.00 0.00 0.00 37 1012.5
20260504211510 73 89 0.0 2.0 0.00 0.00 0.00 34 1012.5
20260504211008 73 321 0.0 1.0 0.00 0.00 0.00 37 1012.4
20260504210511 73 332 0.0 1.0 0.00 0.00 0.00 36 1012.4
20260504210007 74 325 0.0 1.0 0.00 0.00 0.00 31 1012.4
20260504205507 74 285 0.0 1.0 0.00 0.00 0.00 34 1012.4
20260504205006 74 285 0.0 1.0 0.00 0.00 0.00 33 1012.4
20260504204508 74 285 0.0 1.0 0.00 0.00 0.00 32 1012.4
20260504204005 73 312 0.0 0.0 0.00 0.00 0.00 37 1012.5
20260504203505 73 309 0.0 0.0 0.00 0.00 0.00 36 1012.5
20260504203005 73 331 0.0 1.0 0.00 0.00 0.00 34 1012.6
20260504202504 73 319 0.0 1.0 0.00 0.00 0.00 36 1012.5
20260504202004 74 336 0.0 1.0 0.00 0.00 0.00 34 1012.6
20260504201502 74 352 0.0 1.0 0.00 0.00 0.00 37 1012.7
20260504201002 73 54 0.0 1.0 0.00 0.00 0.00 38 1012.7
20260504200600 73 120 0.0 1.0 0.00 0.00 0.00 39 1012.8
20260504195558 73 316 0.0 1.0 0.00 0.00 0.00 40 1013.0
20260504195058 73 233 0.0 1.0 0.00 0.00 0.00 39 1013.0
20260504194604 73 236 0.0 1.0 0.00 0.00 0.00 38 1013.1
20260504194056 73 235 0.0 1.0 0.00 0.00 0.00 38 1013.1
20260504193555 73 232 0.0 1.0 0.00 0.00 0.00 39 1013.2
20260504193056 73 139 0.0 0.0 0.00 0.00 0.00 39 1013.3
20260504192554 73 139 0.0 1.0 0.00 0.00 0.00 39 1013.4
20260504192054 73 207 0.0 1.0 0.00 0.00 0.00 37 1013.6
20260504191613 73 252 0.0 1.0 0.00 0.00 0.00 39 1013.6
20260504191052 73 233 0.0 1.0 0.00 0.00 0.00 41 1013.6
20260504190551 72 244 0.0 1.0 0.00 0.00 0.00 41 1013.7
20260504190050 72 236 0.0 1.0 0.00 0.00 0.00 45 1013.7
20260504185549 72 259 0.0 1.0 0.00 0.00 0.00 40 1013.7
20260504185048 72 236 0.0 1.0 0.00 0.00 0.00 41 1013.9
20260504184555 72 260 0.0 1.0 0.00 0.00 0.00 40 1014.0
20260504184047 72 254 0.0 1.0 0.00 0.00 0.00 44 1014.0
20260504183546 72 276 0.0 1.0 0.00 0.00 0.00 41 1014.1
20260504183046 71 252 0.0 1.0 0.00 0.00 0.00 42 1014.1
20260504182544 71 250 0.0 1.0 0.00 0.00 0.00 40 1014.1
20260504182044 71 302 0.0 1.0 0.00 0.00 0.00 44 1014.2
20260504181542 71 150 0.0 1.0 0.00 0.00 0.00 45 1014.3
20260504181041 70 152 0.0 1.0 0.00 0.00 0.00 42 1014.4
20260504180543 70 250 0.0 1.0 0.00 0.00 0.00 45 1014.5
20260504180038 70 82 0.0 1.0 0.00 0.00 0.00 42 1014.6
20260504175538 70 259 0.0 1.0 0.00 0.00 0.00 43 1014.6
20260504175036 69 255 0.0 1.0 0.00 0.00 0.00 44 1014.7
20260504174535 70 50 0.0 2.0 0.00 0.00 0.00 43 1014.8
20260504174035 70 56 0.0 1.0 0.00 0.00 0.00 44 1015.0
20260504173534 69 333 0.0 1.0 0.00 0.00 0.00 46 1015.0
20260504173034 69 245 0.0 1.0 0.00 0.00 0.00 46 1014.9
20260504172534 69 139 0.0 1.0 0.00 0.00 0.00 43 1014.9
20260504172032 69 243 0.0 1.0 0.00 0.00 0.00 44 1015.1
20260504171532 68 252 0.0 2.0 0.00 0.00 0.00 44 1015.2
20260504171031 68 252 0.0 2.0 0.00 0.00 0.00 45 1015.2
20260504170531 69 69 0.0 1.0 0.00 0.00 0.00 43 1015.3
20260504151006 62 138 0.0 1.0 0.00 0.00 0.00 59 1017.1
20260504150509 61 134 0.0 0.0 0.00 0.00 0.00 62 1017.3
20260504141054 52 124 0.0 0.0 0.00 0.00 0.00 69 1017.8
20260504140550 51 122 0.0 1.0 0.00 0.00 0.00 72 1017.8
20260504130535 44 190 0.0 0.0 0.00 0.00 0.00 85 1017.4
20260504110524 37 153 0.0 0.0 0.00 0.00 0.00 92 1016.7
20260504100519 38 154 0.0 0.0 0.00 0.00 0.00 91 1016.8
20260504081513 38 148 0.0 0.0 0.00 0.00 0.00 90 1016.7
20260504081016 38 148 0.0 0.0 0.00 0.00 0.00 90 1016.6
20260504080512 38 148 0.0 0.0 0.00 0.00 0.00 89 1016.5
20260504060107 41 148 0.0 0.0 0.00 0.00 0.00 82 1016.8
20260504050550 43 148 0.0 0.0 0.00 0.00 0.00 79 1017.0
20260504045547 43 148 0.0 0.0 0.00 0.00 0.00 78 1017.0
20260504045047 43 147 0.0 0.0 0.00 0.00 0.00 78 1016.9
20260504044548 43 148 0.0 0.0 0.00 0.00 0.00 78 1016.8
20260504044047 43 148 0.0 0.0 0.00 0.00 0.00 78 1016.8
20260504043547 43 148 0.0 0.0 0.00 0.00 0.00 78 1016.8
20260504043046 43 148 0.0 0.0 0.00 0.00 0.00 78 1016.7
20260504042544 43 148 0.0 0.0 0.00 0.00 0.00 78 1016.6
20260504042044 44 148 0.0 0.0 0.00 0.00 0.00 77 1016.7
20260504041544 44 148 0.0 0.0 0.00 0.00 0.00 76 1016.7
20260504041042 44 148 0.0 0.0 0.00 0.00 0.00 76 1016.7
20260504040545 44 148 0.0 0.0 0.00 0.00 0.00 75 1016.7
20260504040041 44 148 0.0 0.0 0.00 0.00 0.00 75 1016.6
20260504035541 45 148 0.0 0.0 0.00 0.00 0.00 75 1016.5
20260504035040 45 148 0.0 0.0 0.00 0.00 0.00 75 1016.5
20260504034552 45 148 0.0 0.0 0.00 0.00 0.00 74 1016.5
20260504034040 45 147 0.0 0.0 0.00 0.00 0.00 73 1016.4
20260504033540 46 148 0.0 0.0 0.00 0.00 0.00 72 1016.4
20260504033051 46 148 0.0 0.0 0.00 0.00 0.00 72 1016.5
20260504032542 46 148 0.0 0.0 0.00 0.00 0.00 70 1016.5
20260504032039 47 147 0.0 0.0 0.00 0.00 0.00 70 1016.6
20260504031551 47 148 0.0 0.0 0.00 0.00 0.00 69 1016.5
20260504031039 47 148 0.0 0.0 0.00 0.00 0.00 69 1016.5
20260504030538 47 148 0.0 0.0 0.00 0.00 0.00 68 1016.6
20260504030049 47 147 0.0 0.0 0.00 0.00 0.00 68 1016.6
20260504025538 47 148 0.0 0.0 0.00 0.00 0.00 68 1016.7
20260504025038 48 148 0.0 0.0 0.00 0.00 0.00 68 1016.7